Location: *
(46.9583°N, 4.2256°E)
Time: 07:59:06
(UTC+00:00)

Daily predictions for brighter satellites

Satellite Brightness Start Highest point End
(mag) Time Altitude Azimuth Time Altitude Azimuth Time Altitude Azimuth
Cosmos 1812 Rocket 4.0 16:55:10 10° N 16:59:27 42° ENE 17:03:42 10° SSE
Cosmos 1461 3.9 16:56:14 10° NW 17:00:30 55° WSW 17:04:53 10° SSE
Starlink D 3.3 16:58:46 10° WSW 17:01:46 52° NNW 17:04:45 10° NE
Starlink S 3.3 17:00:26 10° W 17:03:25 51° NNW 17:06:24 10° NE
Helios 1A Rocket 4.1 16:59:51 10° S 17:03:45 48° W 17:07:42 10° NNW
Starlink C 3.4 17:02:02 10° W 17:05:01 49° NNW 17:07:59 10° NE
Starlink E 3.4 17:03:42 10° W 17:06:40 48° NNW 17:09:40 10° NE
Cosmos-2242 4.2 17:03:21 10° NNE 17:06:43 21° ENE 17:10:01 10° ESE
COBE Rocket 4.3 17:01:44 10° N 17:06:53 74° WNW 17:12:03 10° SSW
Starlink J 3.4 17:05:22 10° W 17:08:20 47° NNW 17:11:19 10° NE
USA 234 3.5 17:02:30 10° SE 17:09:02 76° SW 17:15:36 10° NW
YAOGAN 1 3.7 17:06:18 10° ESE 17:09:36 22° ENE 17:12:56 10° NNE
Starlink V 3.5 17:07:02 10° W 17:09:59 46° NNW 17:12:57 10° NE
Cosmos 1241 Rocket 4.4 17:03:59 10° NNW 17:10:12 70° NE 17:16:25 10° SE
Cosmos 2184 Rocket 4.1 17:04:21 10° S 17:10:33 89° W 17:16:45 10° N
Starlink H 3.5 17:08:43 10° W 17:11:40 45° NNW 17:14:38 10° NE
Starlink F 3.5 17:10:24 10° W 17:13:21 44° NNW 17:16:15 10° NE
Starlink G 3.6 17:12:05 10° W 17:15:02 43° NNW 17:17:52 11° NE
Starlink L 3.6 17:13:45 10° W 17:16:42 43° NNW 17:19:28 11° NE
Starlink A 3.6 17:15:27 10° W 17:18:23 42° NNW 17:21:05 12° NE
Cosmos 2154 Rocket 4.0 17:12:43 10° S 17:18:57 70° E 17:25:10 10° NNE
Starlink R 3.6 17:17:10 10° W 17:20:05 41° NNW 17:22:44 12° NE
Cosmos 1242 Rocket 2.6 17:16:39 10° SSW 17:20:09 77° W 17:23:44 10° N
Starlink K 3.7 17:18:50 10° W 17:21:46 40° NNW 17:24:20 13° NE
ATLAS CENTAUR R/B 3.1 17:20:50 10° N 17:23:20 15° NNE 17:25:06 12° ENE
Starlink M 3.7 17:20:30 10° W 17:23:26 40° NNW 17:25:56 13° NE
USA 32 4.4 17:19:00 10° SSE 17:23:54 43° E 17:28:50 10° NNE
ISS -1.9 17:23:55 10° S 17:26:21 19° SE 17:28:18 12° E
Cosmos 1602 Rocket 3.5 17:22:36 10° S 17:26:59 83° E 17:31:22 10° N
CZ-4 R/B 1.8 17:26:57 10° SE 17:30:45 40° ENE 17:34:38 10° N
SMAP 4.0 17:26:43 10° S 17:31:16 54° W 17:35:51 10° NNW
ATLAS CENTAUR R/B 4.1 17:28:43 10° WSW 17:34:11 61° NNW 17:48:22 12° ENE
Cosmos 1300 3.3 17:30:26 10° NNW 17:34:13 61° W 17:37:58 10° S
Cosmos 2237 Rocket 2.1 17:29:05 10° NNW 17:34:45 76° ENE 17:40:22 10° SSE
Cosmos 1295 Rocket 4.5 17:29:11 10° S 17:35:28 71° E 17:41:46 10° NNE
YAOGAN 6 2.5 17:33:01 10° SSE 17:36:42 73° ENE 17:40:22 10° N
Cosmos 1125 Rocket 3.7 17:31:42 10° SSW 17:36:54 76° WNW 17:42:08 10° NNE
COSMO-SKYMED 1 2.8 17:34:05 10° NNE 17:38:20 50° E 17:42:33 10° S
CZ-2D R/B 4.1 17:35:56 10° SE 17:39:11 27° ENE 17:42:30 10° N
Cosmos 1953 Rocket 4.4 17:35:29 10° SSE 17:39:25 31° E 17:43:22 10° NNE
Cosmos 1626 2.8 17:36:11 10° SSW 17:39:49 56° W 17:43:30 10° N
Cosmos 2333 Rocket 3.9 17:35:00 10° NW 17:40:14 38° WSW 17:45:25 10° S
NOSS 2-1 (E) 4.4 17:35:29 10° NW 17:40:44 61° NE 17:48:03 10° SE
NOAA 12 4.4 17:36:44 10° S 17:41:56 70° WSW 17:47:12 10° NNW
Cosmos 1758 Rocket 3.6 17:40:01 10° S 17:44:12 55° E 17:48:26 10° NNE
Cosmos 2366 rocket 4.5 17:39:01 10° SSE 17:44:37 37° E 17:50:19 10° NNE
ADEOS Rocket 4.2 17:39:11 10° NE 17:44:40 27° E 17:50:33 10° SSE
CZ-4 R/B 4.4 17:41:07 10° SSE 17:45:12 64° ENE 17:49:18 10° N
CSL-04 Rocket 3.9 17:40:20 10° SE 17:45:36 50° ENE 17:50:58 10° N
Envisat 3.4 17:41:32 10° S 17:46:35 68° WSW 17:51:40 10° NNW
NOSS 0 Rocket 4.4 17:40:41 10° NNW 17:46:51 65° WSW 17:52:57 10° SSE
Cosmos 1455 2.6 17:45:39 10° N 17:49:16 39° ENE 17:52:50 10° SE
ATLAS 5 CENTAUR R/B 3.7 17:46:13 10° WNW 17:49:36 20° NNW 17:53:20 10° NNE
Cosmos 962 Rocket 4.4 17:45:04 10° S 17:51:10 78° E 17:57:21 10° N
ERBS 2.2 17:50:45 10° SW 17:54:04 75° SE 17:55:37 29° ENE
Starlink AS 4.1 17:54:20 10° WNW 17:56:56 28° NNW 17:57:52 23° NNE
SL-16 R/B 2.4 17:51:29 10° NNW 17:56:59 47° NE 18:02:25 10° SE
Starlink AQ 4.1 17:54:27 10° WNW 17:57:05 28° NNW 17:58:02 23° NNE
Starlink BA 4.1 17:54:34 10° WNW 17:57:10 28° NNW 17:58:05 23° NNE
Starlink AU 4.1 17:54:47 10° WNW 17:57:23 28° NNW 17:58:18 23° NNE
Starlink AT 4.1 17:55:03 10° WNW 17:57:38 28° NNW 17:58:32 23° NNE
Starlink BB 4.1 17:55:15 10° WNW 17:57:51 28° NNW 17:58:44 23° NNE
Okean-O 3.3 17:53:32 10° S 17:57:53 57° W 18:02:17 10° NNW
Starlink BC 4.1 17:55:29 10° WNW 17:58:05 28° NNW 17:58:58 23° NNE
Starlink BK 4.1 17:55:42 10° WNW 17:58:18 28° N 17:59:10 23° NNE
Starlink AY 4.1 17:55:56 10° WNW 17:58:32 28° NNW 17:59:24 23° NNE
Starlink AW 4.1 17:56:10 10° WNW 17:58:45 28° NNW 17:59:36 23° NNE
Cosmos 1269 Rocket 4.4 17:53:34 10° NNW 17:58:50 69° WSW 18:04:04 10° S
Starlink BJ 4.1 17:56:23 10° WNW 17:58:58 27° N 17:59:49 23° NNE
Starlink AV 4.1 17:56:36 10° WNW 17:59:11 27° N 18:00:01 24° NNE
Starlink BD 4.1 17:56:50 10° WNW 17:59:26 27° N 18:00:15 24° NNE
CZ-4C R/B 3.9 17:52:35 10° NW 17:59:38 52° WSW 18:07:34 10° SSE
Starlink BE 4.1 17:57:04 10° WNW 17:59:41 28° N 18:00:31 24° NNE
Starlink BM 4.1 17:57:18 10° WNW 17:59:53 27° N 18:00:41 24° NNE
Starlink AX 4.1 17:57:31 10° WNW 18:00:07 27° N 18:00:54 24° NNE
Starlink BH 4.1 17:57:45 10° WNW 18:00:20 27° N 18:01:08 24° NNE
Starlink AZ 4.1 17:57:58 10° WNW 18:00:33 27° N 18:01:19 24° NNE
Starlink BG 4.1 17:58:13 10° WNW 18:00:48 27° N 18:01:34 24° NNE
Starlink BF 4.1 17:58:25 10° WNW 18:01:00 27° N 18:01:46 24° NNE
Starlink BL 4.1 17:58:37 10° WNW 18:01:14 27° N 18:02:00 24° NNE
Cosmos 724 4.3 17:55:16 10° SSW 18:01:15 86° SE 18:06:12 15° NE
Starlink AH 4.1 17:58:53 10° WNW 18:01:28 27° N 18:02:12 24° NNE
Starlink AC 4.1 17:59:06 10° WNW 18:01:41 27° N 18:02:24 24° NNE
Starlink X 4.1 17:59:20 10° WNW 18:01:54 27° N 18:02:37 24° NNE
Starlink AE 4.1 17:59:28 10° WNW 18:02:05 27° N 18:02:49 24° NNE
Starlink Z 4.1 17:59:46 10° WNW 18:02:21 27° N 18:03:03 24° NNE
Starlink AK 4.1 18:00:01 10° WNW 18:02:35 27° N 18:03:16 24° NNE
Starlink AL 4.1 18:00:15 10° WNW 18:02:49 27° N 18:03:30 24° NNE
Starlink AD 4.1 18:00:24 10° WNW 18:02:58 27° N 18:03:39 24° NNE
Cosmos 1340 Rocket 4.3 17:59:24 10° NNW 18:03:05 38° W 18:06:48 10° SSW
Meteor 1-21 Rocket 4.1 17:57:44 10° S 18:03:19 82° E 18:09:03 10° NNE
Cosmos 2219 3.2 17:57:51 10° SSW 18:03:28 85° WNW 18:09:10 10° NNE
Starlink Y 4.1 18:00:54 10° WNW 18:03:28 27° N 18:04:07 24° NNE
Starlink AG 4.1 18:01:08 10° WNW 18:03:42 27° N 18:04:20 24° NNE
Starlink W 4.1 18:01:19 10° WNW 18:03:56 27° N 18:04:35 25° NNE
Starlink AJ 4.1 18:01:34 10° WNW 18:04:09 27° N 18:04:46 24° NNE
Cosmos 1328 4.2 18:00:30 10° SSE 18:04:17 41° E 18:06:15 24° NE
Starlink AM 4.1 18:02:05 10° WNW 18:04:39 27° N 18:05:15 25° NNE
Starlink AP 4.1 18:02:15 10° WNW 18:04:49 27° N 18:05:25 25° NNE
Starlink AA 4.1 18:02:28 10° WNW 18:05:02 27° N 18:05:37 25° NNE
Starlink AF 4.1 18:02:45 10° WNW 18:05:19 27° N 18:05:53 25° NNE
Starlink AB 4.1 18:02:57 10° WNW 18:05:31 27° N 18:06:04 25° N
Starlink AN 4.1 18:03:08 10° WNW 18:05:42 26° N 18:06:16 25° N
Cosmos 2082 4.1 18:00:40 10° S 18:05:53 42° ESE 18:08:58 23° NE
Cosmos 1825 Rocket 3.4 18:04:36 10° S 18:08:57 88° ESE 18:13:19 10° N
Cosmos 1727 Rocket 4.1 18:04:00 10° N 18:10:00 48° ENE 18:15:55 10° SSE
Cosmos 2297 Rocket 2.1 18:09:52 10° SSW 18:15:32 86° ESE 18:20:18 15° NNE
USA 267 3.9 18:12:10 19° NE 18:16:38 46° NNW 18:22:48 10° W
SL-8 Rocket 3.9 18:14:09 10° S 18:20:28 85° E 18:26:47 10° N
Starlink T 4.3 18:18:50 10° WNW 18:21:23 26° N 18:21:23 26° N
Starlink N 4.4 18:20:18 10° WNW 18:22:47 25° N 18:22:47 25° N
Starlink Q 4.4 18:22:04 10° WNW 18:24:29 25° NNW 18:24:29 25° NNW
Cosmos 2341 Rocket 4.4 18:19:22 10° SSW 18:25:42 67° W 18:32:04 10° N
Starlink P 4.4 18:23:39 10° WNW 18:25:59 25° NNW 18:25:59 25° NNW
SKYMED 2 4.3 18:22:08 10° N 18:26:22 52° WNW 18:30:35 10° SSW
Shenzhou-11 Module 3.9 18:24:59 10° SW 18:26:25 19° S 18:26:25 19° S
Starlink U 4.5 18:25:12 10° WNW 18:27:28 25° NNW 18:27:28 25° NNW
Cosmos 2227 Rocket 2.2 18:22:22 10° SSW 18:28:02 84° WNW 18:32:19 18° NNE
USA 116 3.1 18:27:57 66° N 18:28:21 84° W 18:31:25 10° SSW
NOAA 11 4.3 18:23:40 10° S 18:29:10 80° WSW 18:34:42 10° NNW
Ariane Rocket 3.0 18:25:02 10° SE 18:29:57 53° ENE 18:34:53 10° N
Cosmos 1939 Rocket 3.0 18:30:11 10° S 18:34:04 73° WSW 18:38:04 10° NNW
SL-8 R/B 3.8 18:33:02 10° SW 18:37:46 60° SSE 18:38:29 53° ESE
ARGOS 4.3 18:40:06 27° NNE 18:40:06 27° NNE 18:43:04 10° N
Meteor 2-10 Rocket 4.0 18:38:00 10° NNW 18:43:17 60° W 18:48:19 10° S
Cosmos 1943 4.4 18:39:17 10° N 18:42:49 26° NNE 18:42:49 26° NNE
Cosmos 1703 3.4 18:40:18 10° SSW 18:44:14 72° W 18:45:38 38° N
Cosmos-2242 4.4 18:40:24 10° NNW 18:44:26 39° W 18:48:24 10° SSW
YAOGAN 1 3.8 18:41:20 10° S 18:45:27 43° W 18:49:36 10° NNW
H-2A R/B 3.2 18:52:43 28° NNE 18:52:43 28° NNE 18:55:18 10° N
Cosmos 44 3.0 18:47:15 10° SW 18:51:51 83° NW 18:52:11 75° N
Cosmos 1821 Rocket 4.1 18:47:11 10° SSE 19:01:34 - NNE 18:52:56 50° ESE
Cosmos 2218 Rocket 4.4 18:49:26 10° SSW 18:55:43 65° W 19:02:07 10° N
SL-08 R/B 4.4 18:49:37 10° S 18:55:56 88° E 19:02:22 10° N
Cosmos 2251 Rocket 3.7 18:52:34 10° NNW 18:57:52 73° WSW 19:02:01 17° S
ISS -1.9 18:59:24 10° WSW 19:01:14 30° WSW 19:01:14 30° WSW
ATLAS CENTAUR R/B 2.6 18:58:57 10° NW 19:01:19 32° NNW 19:01:19 32° NNW
CZ-4 R/B 4.1 19:02:56 10° SW 19:05:57 20° W 19:09:01 10° NW
Atlas Centaur 2 4.3 19:12:20 10° SSW 19:14:16 14° S 19:14:16 14° S
DELTA 2 R/B (1) 4.5 19:12:02 10° WSW 19:17:10 38° S 19:17:12 38° S
CZ-2C R/B 4.5 19:23:28 29° N 19:23:28 29° N 19:26:11 10° N
Cosmos 1000 Rocket 4.4 19:21:57 10° N 19:28:10 84° W 19:28:48 73° SSW
ADEOS Rocket 3.6 19:24:04 10° N 19:30:32 66° WNW 19:37:40 10° SSW
Meteor 2-2 Rocket 4.5 19:28:16 10° NNW 19:33:55 73° WNW 19:33:55 73° WNW
ATLAS 5 CENTAUR R/B 4.4 19:33:59 10° NNW 19:35:26 12° N 19:35:26 12° N
SL-16 R/B 3.8 19:35:59 10° NW 19:40:54 31° WSW 19:45:46 10° SSW
USA 267 4.2 19:59:31 36° N 19:59:31 36° N 20:04:43 10° WNW
Cosmos 2297 Rocket 4.3 19:56:10 10° W 20:00:21 21° NW 20:02:09 18° NNW
Cosmos 2227 Rocket 4.4 20:09:04 10° W 20:12:59 19° NW 20:14:11 18° NNW
